QPF
0.00 0.00 0.00 0.00 0.00 0.00 0.00 0.00 0.00 0.00 0.02 0.00 0.00 0.00 0.02 0.02 0.00 0.00 0.00 0.00 0.00 0.00 0.03 0.07 0.06 0.02 0.00 0.00 0.01 0.00 0.00 0.00 0.00 0.00 0.00 0.00 0.00 0.00 0.00 0.00 0.00 0.00 0.00 0.00 0.00 0.00 0.00 0.00 0.00
0.00 0.00 0.00 0.00 0.00 0.00 0.00 0.00 0.00 0.00 0.01 0.00 0.00 0.00 0.00 0.00 0.00 0.00 0.00 0.00 0.00 0.00 0.03 0.02 0.05 0.03 0.01 0.01 0.01 0.00 0.00 0.00 0.00 0.00 0.00 0.00 0.00 0.00 0.00 0.00 0.00 0.00 0.00 0.00 0.00 0.00 0.00 0.00 0.00
0.00 0.00 0.00 0.00 0.00 0.00 0.00 0.00 0.00 0.00 0.00 0.00 0.00 0.00 0.00 0.01 0.00 0.00 0.00 0.00 0.00 0.00 0.01 0.01 0.03 0.03 0.02 0.02 0.01 0.00 0.00 0.00 0.00 0.00 0.00 0.00 0.00 0.00 0.00 0.00 0.00 0.00 0.00 0.00 0.00 0.00 0.00 0.00 0.00
0.00 0.00 0.00 0.00 0.00 0.00 0.00 0.00 0.02 0.00 0.00 0.00 0.00 0.00 0.01 0.00 0.00 0.00 0.00 0.00 0.00 0.00 0.03 0.04 0.04 0.01 0.01 0.00 0.00 0.00 0.00 0.00 0.00 0.00 0.00 0.00 0.00 0.00 0.00 0.00 0.00 0.00 0.00 0.00 0.00 0.00 0.00 0.00 0.00
0.00 0.00 0.00 0.00 0.00 0.00 0.00 0.00 0.00 0.00 0.00 0.00 0.00 0.00 0.01 0.00 0.00 0.00 0.00 0.00 0.00 0.00 0.13 0.13 0.11 0.05 0.01 0.00 0.00 0.00 0.00 0.00 0.00 0.00 0.00 0.00 0.00 0.00 0.00 0.00 0.00 0.00 0.00 0.00 0.00 0.00 0.00 0.00 0.00
0.00 0.00 0.00 0.00 0.00 0.01 0.00 0.00 0.00 0.00 0.00 0.00 0.00 0.00 0.01 0.00 0.00 0.00 0.00 0.00 0.01 0.00 0.13 0.06 0.07 0.03 0.00 0.00 0.00 0.00 0.00 0.00 0.00 0.00 0.00 0.00 0.00 0.00 0.00 0.00 0.00 0.00 0.00 0.00 0.00 0.01 0.02 0.00 0.00
0.00 0.00 0.00 0.00 0.00 0.00 0.00 0.00 0.00 0.00 0.00 0.00 0.00 0.00 0.01 0.01 0.00 0.00 0.00 0.00 0.02 0.08 0.06 0.16 0.14 0.09 0.02 0.01 0.00 0.00 0.00 0.00 0.00 0.00 0.00 0.00 0.00 0.00 0.00 0.00 0.00 0.00 0.00 0.00 0.05 0.10 0.09 0.05 0.01
0.00 0.00 0.00 0.00 0.00 0.00 0.00 0.00 0.00 0.00 0.00 0.00 0.00 0.00 0.01 0.00 0.00 0.00 0.00 0.00 0.01 0.19 0.06 0.17 0.04 0.21 0.08 0.02 0.00 0.00 0.00 0.00 0.00 0.00 0.00 0.00 0.00 0.00 0.00 0.00 0.00 0.00 0.00 0.00 0.05 0.10 0.07 0.02 0.01
0.00 0.00 0.00 0.00 0.00 0.00 0.00 0.00 0.00 0.00 0.00 0.00 0.00 0.00 0.00 0.00 0.00 0.00 0.00 0.00 0.00 0.03 0.12 0.04 0.11 0.12 0.16 0.05 0.01 0.00 0.00 0.00 0.00 0.00 0.00 0.00 0.00 0.00 0.00 0.00 0.01 0.00 0.00 0.01 0.00 0.02 0.02 0.02 0.00
0.00 0.00 0.00 0.00 0.00 0.00 0.00 0.00 0.00 0.00 0.00 0.00 0.00 0.00 0.00 0.00 0.00 0.00 0.00 0.00 0.00 0.00 0.02 0.03 0.12 0.18 0.24 0.14 0.17 0.09 0.06 0.01 0.00 0.00 0.00 0.00 0.00 0.00 0.00 0.00 0.01 0.00 0.00 0.00 0.00 0.00 0.00 0.00 0.00
0.00 0.00 0.00 0.00 0.00 0.00 0.00 0.00 0.00 0.00 0.00 0.00 0.00 0.00 0.00 0.00 0.00 0.00 0.00 0.00 0.00 0.00 0.00 0.00 0.01 0.12 0.21 0.29 0.14 0.06 0.06 0.01 0.00 0.00 0.00 0.00 0.00 0.00 0.00 0.00 0.00 0.00 0.00 0.00 0.00 0.00 0.00 0.00 0.00
0.00 0.00 0.00 0.00 0.00 0.00 0.00 0.00 0.00 0.00 0.00 0.00 0.00 0.00 0.00 0.00 0.00 0.00 0.00 0.00 0.00 0.00 0.00 0.00 0.00 0.10 0.09 0.14 0.03 0.12 0.02 0.03 0.00 0.00 0.00 0.00 0.00 0.00 0.00 0.00 0.00 0.00 0.00 0.00 0.00 0.00 0.00 0.00 0.00
0.00 0.00 0.00 0.00 0.00 0.00 0.00 0.00 0.00 0.00 0.00 0.00 0.00 0.00 0.00 0.00 0.00 0.00 0.00 0.00 0.00 0.00 0.00 0.00 0.00 0.01 0.05 0.02 0.02 0.28 0.02 0.00 0.00 0.00 0.00 0.00 0.00 0.00 0.00 0.00 0.00 0.00 0.00 0.00 0.00 0.00 0.00 0.00 0.00
0.00 0.00 0.00 0.00 0.00 0.00 0.00 0.00 0.00 0.00 0.00 0.00 0.00 0.00 0.00 0.00 0.00 0.00 0.00 0.00 0.00 0.00 0.00 0.00 0.00 0.00 0.00 0.03 0.01 0.03 0.00 0.00 0.00 0.00 0.00 0.00 0.00 0.00 0.00 0.00 0.00 0.00 0.00 0.00 0.00 0.00 0.00 0.00 0.00
0.00 0.00 0.00 0.00 0.00 0.00 0.00 0.00 0.00 0.00 0.00 0.00 0.00 0.00 0.00 0.00 0.00 0.00 0.00 0.00 0.00 0.00 0.00 0.00 0.00 0.00 0.00 0.00 0.00 0.00 0.00 0.04 0.07 0.01 0.00 0.00 0.00 0.00 0.00 0.00 0.00 0.00 0.00 0.00 0.00 0.00 0.00 0.00 0.00
0.00 0.00 0.00 0.00 0.00 0.00 0.00 0.00 0.00 0.00 0.00 0.00 0.00 0.00 0.00 0.00 0.00 0.00 0.00 0.00 0.00 0.00 0.00 0.00 0.00 0.00 0.00 0.00 0.00 0.00 0.00 0.00 0.01 0.00 0.00 0.00 0.00 0.00 0.00 0.00 0.00 0.00 0.00 0.00 0.00 0.00 0.00 0.00 0.00
0.00 0.00 0.00 0.00 0.00 0.00 0.00 0.00 0.00 0.00 0.00 0.00 0.00 0.00 0.00 0.00 0.00 0.00 0.00 0.00 0.00 0.00 0.00 0.00 0.00 0.00 0.00 0.00 0.00 0.00 0.00 0.00 0.00 0.00 0.00 0.00 0.00 0.00 0.00 0.00 0.00 0.00 0.00 0.00 0.00 0.00 0.00 0.00 0.00
0.00 0.00 0.00 0.00 0.00 0.00 0.00 0.00 0.00 0.00 0.00 0.00 0.00 0.00 0.00 0.00 0.00 0.00 0.00 0.00 0.00 0.00 0.00 0.00 0.00 0.00 0.00 0.00 0.00 0.00 0.00 0.00 0.00 0.00 0.00 0.00 0.00 0.00 0.00 0.00 0.00 0.00 0.00 0.00 0.00 0.00 0.01 0.00 0.00
0.00 0.00 0.00 0.00 0.00 0.00 0.00 0.00 0.00 0.00 0.00 0.00 0.00 0.00 0.00 0.00 0.00 0.00 0.00 0.00 0.00 0.00 0.00 0.00 0.00 0.00 0.00 0.00 0.00 0.00 0.00 0.00 0.00 0.00 0.00 0.00 0.00 0.00 0.00 0.00 0.00 0.00 0.00 0.00 0.00 0.01 0.09 0.06 0.00
0.00 0.00 0.00 0.00 0.00 0.00 0.00 0.00 0.00 0.00 0.00 0.00 0.00 0.00 0.00 0.00 0.00 0.00 0.00 0.00 0.00 0.00 0.00 0.00 0.00 0.00 0.00 0.00 0.00 0.00 0.00 0.00 0.00 0.00 0.00 0.00 0.00 0.00 0.00 0.00 0.00 0.00 0.00 0.00 0.00 0.00 0.12 0.08 0.01
0.00 0.00 0.00 0.00 0.00 0.00 0.00 0.00 0.00 0.00 0.00 0.00 0.00 0.00 0.00 0.00 0.00 0.00 0.00 0.00 0.00 0.00 0.00 0.00 0.00 0.00 0.00 0.00 0.00 0.00 0.00 0.00 0.00 0.00 0.00 0.00 0.00 0.00 0.00 0.00 0.00 0.00 0.00 0.00 0.00 0.00 0.03 0.13 0.04
0.00 0.00 0.00 0.00 0.00 0.00 0.00 0.00 0.00 0.00 0.00 0.00 0.00 0.00 0.00 0.00 0.00 0.00 0.00 0.00 0.00 0.00 0.00 0.00 0.00 0.00 0.00 0.00 0.00 0.00 0.00 0.00 0.00 0.00 0.00 0.00 0.00 0.00 0.00 0.00 0.00 0.00 0.00 0.00 0.00 0.00 0.00 0.02 0.03
0.00 0.00 0.00 0.00 0.00 0.00 0.00 0.00 0.00 0.00 0.00 0.00 0.00 0.00 0.00 0.00 0.00 0.00 0.00 0.00 0.00 0.00 0.00 0.00 0.00 0.01 0.00 0.00 0.00 0.00 0.00 0.00 0.00 0.00 0.00 0.00 0.00 0.00 0.00 0.00 0.00 0.00 0.00 0.00 0.00 0.00 0.00 0.00 0.00
0.00 0.00 0.00 0.00 0.00 0.00 0.00 0.00 0.00 0.00 0.00 0.00 0.00 0.00 0.00 0.00 0.00 0.00 0.00 0.00 0.00 0.00 0.00 0.00 0.00 0.00 0.00 0.00 0.00 0.00 0.00 0.00 0.00 0.00 0.00 0.00 0.00 0.00 0.00 0.00 0.00 0.00 0.00 0.00 0.00 0.00 0.01 0.00 0.00
0.00 0.00 0.00 0.00 0.00 0.00 0.00 0.00 0.00 0.00 0.00 0.00 0.00 0.00 0.00 0.00 0.00 0.00 0.00 0.00 0.00 0.00 0.00 0.00 0.00 0.00 0.00 0.00 0.00 0.00 0.00 0.00 0.00 0.01 0.00 0.00 0.00 0.00 0.00 0.00 0.00 0.00 0.00 0.00 0.00 0.00 0.04 0.05 0.00
0.00 0.00 0.00 0.00 0.00 0.00 0.00 0.00 0.00 0.00 0.00 0.00 0.00 0.00 0.00 0.00 0.00 0.00 0.00 0.00 0.00 0.00 0.00 0.00 0.00 0.00 0.00 0.00 0.00 0.00 0.00 0.00 0.00 0.01 0.00 0.00 0.00 0.00 0.00 0.00 0.00 0.00 0.00 0.00 0.00 0.00 0.11 0.06 0.00
0.00 0.00 0.00 0.00 0.00 0.00 0.00 0.00 0.00 0.00 0.00 0.00 0.00 0.00 0.00 0.00 0.00 0.00 0.00 0.00 0.00 0.00 0.00 0.00 0.00 0.00 0.00 0.00 0.00 0.00 0.00 0.00 0.00 0.01 0.01 0.00 0.00 0.00 0.00 0.00 0.00 0.00 0.00 0.00 0.00 0.03 0.07 0.00 0.00
0.00 0.00 0.00 0.00 0.00 0.00 0.00 0.00 0.00 0.00 0.00 0.00 0.00 0.00 0.00 0.00 0.00 0.00 0.00 0.00 0.00 0.00 0.00 0.00 0.00 0.00 0.00 0.00 0.00 0.00 0.00 0.00 0.00 0.01 0.02 0.00 0.00 0.00 0.03 0.05 0.02 0.00 0.00 0.00 0.00 0.01 0.00 0.00 0.00
0.00 0.00 0.00 0.00 0.00 0.00 0.00 0.00 0.00 0.00 0.00 0.00 0.00 0.00 0.00 0.00 0.00 0.00 0.00 0.00 0.00 0.00 0.00 0.00 0.00 0.00 0.00 0.00 0.00 0.00 0.00 0.00 0.00 0.02 0.04 0.00 0.00 0.00 0.05 0.05 0.03 0.00 0.00 0.00 0.00 0.00 0.00 0.00 0.00
0.00 0.00 0.00 0.00 0.00 0.00 0.00 0.00 0.00 0.00 0.00 0.00 0.00 0.00 0.00 0.00 0.00 0.00 0.00 0.00 0.00 0.00 0.00 0.00 0.00 0.00 0.00 0.00 0.00 0.00 0.00 0.00 0.00 0.00 0.03 0.02 0.01 0.00 0.01 0.01 0.00 0.00 0.00 0.00 0.00 0.00 0.00 0.00 0.00
MSLP
1010.54 1010.53 1010.66 1010.25 1010.30 1009.53 1009.97 1010.50 1010.60 1010.77 1011.04 1011.22 1011.28 1011.22 1012.09 1012.39 1012.83 1014.07 1014.83 1015.12 1015.52 1015.76 1016.16 1016.43 1016.60 1016.76 1016.99 1017.21 1017.40 1017.62 1017.81 1017.99 1018.21 1018.24 1018.24 1018.38 1018.53 1018.64 1018.73 1018.81 1018.75 1018.77 1018.71 1018.67 1018.55 1018.45 1018.34 1018.23 1018.13
1010.33 1010.59 1010.33 1009.59 1009.53 1009.25 1010.02 1010.25 1010.23 1010.65 1011.06 1011.35 1011.56 1011.82 1012.11 1012.94 1013.53 1014.35 1014.83 1015.20 1015.39 1015.77 1016.28 1016.53 1016.85 1017.05 1017.32 1017.64 1017.77 1017.93 1018.16 1018.37 1018.52 1018.50 1018.67 1018.76 1018.75 1018.83 1018.92 1019.01 1018.97 1018.96 1018.97 1018.89 1018.77 1018.66 1018.41 1018.24 1018.18
1010.37 1010.28 1009.94 1009.37 1009.52 1009.27 1009.82 1010.31 1010.36 1010.75 1011.06 1011.12 1011.58 1012.10 1012.55 1013.40 1014.00 1014.41 1014.71 1015.19 1015.53 1015.91 1016.47 1016.75 1016.97 1017.23 1017.51 1017.86 1018.00 1018.16 1018.33 1018.63 1018.75 1018.79 1018.95 1019.04 1019.05 1019.00 1019.09 1019.14 1019.18 1019.18 1019.03 1019.04 1018.88 1018.69 1018.45 1018.36 1018.18
1010.24 1010.07 1009.87 1009.41 1009.20 1009.61 1009.55 1010.07 1010.38 1010.62 1010.94 1011.26 1011.67 1012.27 1013.16 1013.68 1014.07 1014.56 1015.01 1015.19 1015.64 1015.97 1016.56 1017.04 1017.21 1017.41 1017.66 1017.92 1018.20 1018.36 1018.44 1018.80 1018.97 1019.12 1019.24 1019.33 1019.37 1019.31 1019.37 1019.31 1019.33 1019.24 1019.15 1019.12 1018.99 1018.79 1018.51 1018.41 1018.13
1010.14 1009.86 1009.42 1009.28 1009.29 1009.45 1009.58 1009.95 1010.25 1010.36 1010.92 1011.44 1011.77 1012.69 1013.53 1014.35 1014.41 1014.85 1015.18 1015.36 1015.67 1016.17 1016.80 1017.16 1017.47 1017.62 1017.88 1018.09 1018.39 1018.62 1018.86 1019.08 1019.17 1019.31 1019.47 1019.51 1019.62 1019.65 1019.56 1019.57 1019.47 1019.37 1019.24 1019.21 1019.09 1018.86 1018.69 1018.49 1018.19
1009.80 1009.76 1009.47 1009.31 1009.29 1009.36 1009.56 1009.78 1010.11 1010.57 1011.16 1011.69 1012.16 1012.76 1014.29 1014.77 1014.77 1015.07 1015.38 1015.53 1015.81 1016.28 1017.01 1017.38 1017.70 1017.82 1018.05 1018.35 1018.54 1018.75 1018.94 1019.22 1019.37 1019.49 1019.66 1019.74 1019.76 1019.83 1019.71 1019.56 1019.48 1019.40 1019.27 1019.17 1019.01 1018.87 1018.66 1018.36 1018.14
1009.59 1009.42 1009.50 1009.33 1009.22 1009.12 1009.34 1009.73 1009.91 1010.51 1011.07 1011.58 1012.09 1012.81 1014.53 1014.86 1015.03 1015.28 1015.57 1015.89 1016.14 1016.35 1016.96 1017.46 1017.74 1018.04 1018.23 1018.44 1018.71 1018.91 1019.13 1019.31 1019.52 1019.59 1019.72 1019.86 1019.88 1019.90 1019.72 1019.53 1019.41 1019.32 1019.27 1019.11 1018.87 1018.70 1018.46 1018.23 1017.96
1009.72 1009.31 1009.17 1008.95 1008.66 1008.91 1009.21 1009.52 1009.96 1010.36 1011.14 1011.70 1011.99 1012.55 1013.71 1014.28 1014.93 1015.39 1015.63 1015.96 1016.45 1016.82 1016.88 1017.60 1018.06 1017.73 1018.38 1018.65 1018.82 1019.06 1019.30 1019.49 1019.55 1019.73 1019.80 1019.88 1019.89 1019.88 1019.79 1019.54 1019.41 1019.30 1019.15 1018.92 1018.78 1018.60 1018.36 1017.94 1017.64
1010.03 1009.30 1008.68 1008.41 1008.36 1008.65 1009.06 1009.43 1010.08 1010.66 1011.17 1011.78 1012.23 1012.30 1012.72 1014.22 1014.85 1015.32 1015.70 1016.08 1016.59 1016.94 1017.13 1017.33 1018.04 1018.49 1018.63 1018.92 1018.99 1019.11 1019.34 1019.46 1019.65 1019.77 1019.87 1019.85 1019.70 1019.65 1019.54 1019.54 1019.38 1019.09 1018.91 1018.76 1018.63 1018.42 1018.17 1017.82 1017.54
1009.63 1009.01 1008.43 1008.02 1007.91 1008.16 1008.76 1009.24 1009.93 1010.58 1011.23 1012.01 1012.71 1013.03 1013.59 1014.62 1015.08 1015.32 1015.59 1015.93 1016.40 1016.80 1017.16 1017.49 1017.87 1018.42 1018.82 1018.98 1019.31 1019.54 1019.34 1019.48 1019.69 1019.96 1020.02 1019.88 1019.78 1019.64 1019.52 1019.41 1019.32 1019.04 1018.92 1018.71 1018.60 1018.39 1018.05 1017.61 1017.15
1009.43 1008.71 1008.33 1007.83 1007.65 1007.96 1008.52 1009.32 1009.88 1010.28 1010.70 1011.21 1012.19 1013.27 1014.14 1014.84 1015.23 1015.45 1015.58 1015.83 1016.09 1016.71 1017.34 1017.76 1018.11 1018.39 1018.83 1019.42 1019.61 1019.77 1019.91 1019.58 1019.72 1020.01 1020.15 1020.03 1019.66 1019.40 1019.15 1018.95 1018.94 1018.74 1018.64 1018.24 1018.14 1017.95 1017.77 1017.63 1017.40
1009.25 1008.72 1008.25 1007.75 1007.91 1008.18 1008.75 1009.33 1009.72 1010.13 1010.33 1010.77 1011.91 1013.17 1013.90 1014.54 1015.00 1015.28 1015.49 1015.86 1016.19 1016.81 1017.26 1017.51 1017.81 1018.27 1019.03 1019.34 1019.71 1020.04 1020.27 1019.92 1019.61 1019.81 1020.05 1019.96 1019.52 1019.25 1019.22 1018.97 1019.02 1018.82 1018.60 1018.47 1018.37 1018.11 1018.09 1017.86 1017.79
1009.04 1008.53 1008.05 1007.64 1007.97 1008.44 1009.09 1009.48 1009.65 1010.16 1010.78 1011.27 1012.19 1013.20 1013.94 1014.54 1015.04 1015.21 1015.44 1015.95 1016.37 1016.86 1017.34 1017.58 1017.73 1018.28 1019.00 1019.40 1019.85 1020.26 1020.27 1019.97 1019.62 1019.72 1019.91 1019.82 1019.47 1019.28 1019.15 1019.04 1018.94 1018.92 1018.85 1018.70 1018.47 1018.36 1018.18 1017.92 1017.82
1008.85 1008.46 1007.94 1007.66 1007.98 1008.46 1008.93 1009.57 1009.82 1010.47 1011.18 1011.80 1012.37 1012.86 1013.45 1013.90 1014.34 1014.93 1015.30 1015.54 1016.12 1016.65 1017.19 1017.50 1017.98 1018.25 1018.69 1019.24 1019.65 1019.93 1020.20 1020.13 1019.96 1019.91 1019.84 1019.89 1019.63 1019.39 1019.12 1019.08 1019.03 1019.12 1019.09 1018.96 1018.82 1018.68 1018.35 1018.05 1017.80
1008.77 1008.39 1008.16 1008.22 1008.35 1008.34 1008.84 1009.50 1009.49 1010.06 1011.07 1011.67 1012.04 1012.48 1012.91 1013.41 1013.95 1014.20 1014.72 1015.24 1015.66 1016.18 1016.91 1017.41 1017.75 1018.02 1018.55 1019.08 1019.20 1019.51 1019.93 1020.05 1020.19 1020.26 1020.05 1019.84 1019.71 1019.56 1019.42 1019.16 1019.15 1019.26 1019.28 1019.15 1018.89 1018.64 1018.34 1017.95 1017.85
1008.65 1008.65 1008.26 1008.44 1008.52 1008.68 1008.90 1008.45 1008.90 1009.91 1010.54 1011.11 1011.76 1012.19 1012.57 1012.87 1013.14 1013.60 1014.27 1014.83 1015.35 1015.85 1016.56 1017.22 1017.73 1017.95 1018.24 1018.71 1019.12 1019.21 1019.56 1019.64 1019.79 1020.23 1019.88 1019.77 1019.78 1019.74 1019.62 1019.31 1019.38 1019.56 1019.44 1019.17 1018.87 1018.75 1018.42 1018.31 1018.43
1009.07 1008.84 1008.70 1008.48 1008.59 1008.58 1008.84 1008.32 1008.69 1009.57 1009.98 1010.49 1011.21 1011.69 1011.97 1012.41 1012.85 1013.22 1013.75 1014.49 1015.00 1015.72 1016.34 1016.94 1017.50 1017.86 1018.22 1018.69 1019.05 1019.17 1019.26 1019.48 1019.83 1019.94 1019.73 1019.82 1019.75 1019.66 1019.64 1019.48 1019.59 1019.71 1019.51 1019.23 1019.08 1018.91 1018.79 1018.63 1018.69
1009.18 1009.04 1009.09 1008.79 1008.66 1008.64 1008.51 1008.14 1008.53 1009.17 1009.51 1009.62 1010.37 1011.03 1011.53 1011.54 1011.92 1012.59 1013.14 1013.86 1014.62 1015.34 1016.02 1016.59 1017.08 1017.66 1018.15 1018.48 1019.07 1019.12 1019.26 1019.39 1019.64 1019.83 1019.54 1019.67 1019.72 1019.69 1019.67 1019.54 1019.69 1019.71 1019.56 1019.38 1019.33 1019.29 1019.08 1019.13 1019.11
1009.33 1009.25 1009.11 1009.06 1008.93 1008.87 1008.44 1008.11 1007.93 1008.35 1008.91 1009.12 1009.46 1009.92 1010.45 1010.85 1011.28 1011.93 1012.76 1013.36 1014.15 1014.93 1015.57 1016.23 1016.78 1017.30 1017.73 1018.25 1018.67 1018.96 1018.88 1019.23 1019.54 1019.36 1019.66 1019.74 1019.69 1019.64 1019.64 1019.46 1019.54 1019.72 1019.72 1019.70 1019.67 1019.46 1019.30 1019.34 1019.43
1009.21 1009.22 1008.98 1008.88 1009.04 1009.14 1008.60 1008.03 1007.60 1007.51 1007.36 1007.63 1008.18 1008.73 1009.16 1009.81 1010.73 1011.31 1011.97 1012.67 1013.30 1014.11 1014.86 1015.61 1016.16 1016.93 1017.40 1017.70 1018.20 1018.55 1018.82 1018.87 1018.96 1019.35 1019.56 1019.48 1019.59 1019.59 1019.60 1019.59 1019.49 1019.71 1019.72 1019.75 1019.80 1019.74 1019.37 1019.30 1019.36
1008.76 1008.87 1008.75 1009.03 1009.18 1009.26 1008.85 1007.51 1007.10 1006.55 1006.40 1006.97 1007.25 1007.62 1008.07 1008.51 1009.37 1010.34 1011.03 1011.70 1012.59 1013.33 1014.01 1014.90 1015.49 1016.22 1016.94 1017.38 1017.98 1018.61 1018.85 1019.05 1019.12 1019.14 1019.41 1019.30 1019.44 1019.59 1019.55 1019.47 1019.45 1019.70 1019.65 1019.58 1019.84 1019.66 1019.57 1019.37 1019.46
1008.42 1008.66 1008.74 1008.99 1009.24 1009.04 1009.20 1007.62 1006.50 1006.29 1005.91 1006.08 1005.99 1006.50 1006.71 1007.49 1008.43 1009.28 1010.23 1011.05 1011.57 1012.26 1013.35 1014.34 1015.11 1015.77 1016.42 1017.13 1017.56 1017.80 1018.04 1018.06 1018.16 1018.59 1018.97 1019.06 1019.17 1019.32 1019.25 1019.27 1019.40 1019.66 1019.56 1019.58 1019.70 1019.55 1019.55 1019.49 1019.28
1008.12 1008.42 1008.56 1009.02 1009.33 1009.45 1009.24 1008.43 1005.86 1006.00 1005.21 1004.85 1004.89 1005.02 1005.67 1006.34 1007.44 1008.15 1009.03 1009.81 1010.83 1012.00 1012.65 1013.53 1014.60 1015.16 1015.73 1016.43 1016.92 1017.46 1017.80 1017.74 1017.91 1018.20 1018.56 1018.72 1018.77 1019.04 1018.99 1019.10 1019.24 1019.46 1019.38 1019.35 1019.56 1019.53 1019.45 1019.48 1019.41
1008.19 1008.51 1008.80 1009.32 1009.43 1008.84 1009.23 1008.44 1005.24 1004.68 1004.08 1004.07 1004.22 1004.31 1004.69 1005.54 1006.51 1007.35 1008.36 1009.80 1010.53 1011.51 1012.42 1013.08 1013.90 1014.78 1015.36 1015.89 1016.44 1016.98 1017.37 1017.54 1017.74 1017.81 1017.92 1018.01 1018.16 1018.29 1018.56 1018.74 1018.95 1019.18 1019.03 1019.19 1019.23 1019.34 1019.32 1019.41 1019.48
1008.12 1008.24 1008.39 1008.70 1008.80 1008.77 1009.13 1008.11 1005.03 1003.85 1003.65 1003.67 1003.67 1003.88 1004.38 1005.27 1006.16 1006.93 1007.95 1008.75 1009.64 1010.73 1011.70 1012.65 1013.36 1014.01 1014.79 1015.34 1015.86 1016.42 1016.80 1017.03 1017.24 1017.48 1017.51 1017.55 1017.62 1017.76 1017.91 1018.14 1018.50 1018.66 1018.66 1018.84 1018.89 1019.04 1019.07 1019.25 1019.31
1007.97 1008.30 1008.39 1008.36 1008.55 1008.37 1008.67 1006.55 1004.06 1003.47 1003.07 1003.24 1003.48 1003.70 1004.17 1004.78 1005.56 1006.34 1007.32 1008.28 1009.30 1010.23 1011.19 1011.94 1012.77 1013.55 1014.17 1014.84 1015.28 1015.93 1016.38 1016.56 1016.79 1017.08 1017.10 1017.25 1017.22 1017.31 1017.40 1017.67 1017.92 1018.22 1018.38 1018.50 1018.55 1018.79 1018.92 1019.15 1019.33
1008.06 1008.25 1008.66 1008.34 1008.92 1008.36 1006.87 1005.43 1003.68 1002.48 1002.45 1002.68 1002.95 1003.44 1003.94 1004.53 1005.27 1005.85 1006.83 1007.73 1008.67 1009.53 1010.37 1011.09 1012.03 1012.79 1013.55 1014.32 1014.88 1015.52 1015.98 1016.25 1016.39 1016.71 1016.85 1016.99 1017.14 1017.12 1017.31 1017.48 1017.76 1018.00 1018.00 1018.11 1018.22 1018.60 1019.00 1019.16 1019.46
1007.03 1007.59 1008.18 1008.32 1007.70 1006.97 1005.89 1004.94 1003.24 1002.14 1001.91 1002.11 1002.37 1002.69 1003.55 1004.32 1004.98 1005.61 1006.36 1007.14 1008.02 1008.97 1009.97 1010.79 1011.55 1012.01 1012.71 1013.71 1014.30 1014.96 1015.42 1015.80 1016.10 1016.42 1016.57 1016.70 1016.89 1017.00 1017.07 1017.26 1017.46 1017.80 1017.45 1017.77 1018.28 1018.73 1019.17 1019.31 1019.45
1007.00 1006.93 1007.47 1007.56 1007.37 1006.30 1005.29 1003.42 1002.59 1002.05 1001.80 1001.77 1001.77 1002.22 1002.96 1003.59 1004.46 1005.08 1005.68 1006.50 1007.52 1008.46 1009.34 1010.27 1010.99 1011.60 1012.31 1013.36 1013.98 1014.43 1014.88 1015.21 1015.63 1015.95 1016.14 1016.40 1016.72 1016.88 1016.95 1017.23 1017.43 1017.67 1017.70 1018.01 1018.41 1018.82 1019.21 1019.41 1019.50
1005.35 1005.39 1005.99 1005.99 1006.24 1006.49 1005.53 1002.92 1001.75 1001.43 1001.43 1001.88 1001.68 1001.93 1002.48 1003.03 1003.61 1004.53 1005.23 1006.05 1006.99 1007.87 1008.57 1009.35 1010.19 1010.84 1011.60 1012.79 1013.63 1014.09 1014.54 1014.73 1015.18 1015.53 1015.82 1016.08 1016.43 1016.70 1016.89 1017.25 1017.55 1017.71 1017.85 1018.06 1018.44 1018.81 1019.25 1019.40 1019.47
Thickness
5817 5818 5820 5817 5798 5801 5777 5780 5794 5788 5790 5804 5809 5806 5793 5797 5789 5778 5797 5798 5795 5793 5789 5787 5785 5783 5782 5781 5780 5778 5777 5775 5774 5775 5777 5776 5775 5775 5775 5775 5777 5776 5776 5776 5776 5776 5776 5777 5776
5820 5819 5818 5812 5792 5778 5774 5791 5789 5794 5801 5809 5808 5805 5800 5787 5799 5794 5793 5799 5797 5794 5789 5787 5785 5783 5781 5779 5779 5778 5775 5773 5774 5775 5775 5774 5774 5775 5775 5775 5776 5776 5776 5776 5775 5776 5778 5778 5778
5822 5822 5807 5799 5786 5777 5773 5790 5796 5802 5808 5808 5801 5808 5802 5789 5798 5798 5803 5800 5797 5794 5789 5787 5786 5784 5781 5779 5778 5776 5775 5773 5773 5773 5773 5773 5774 5774 5774 5775 5776 5776 5776 5776 5777 5779 5780 5780 5780
5816 5814 5811 5794 5783 5788 5794 5796 5802 5802 5809 5812 5809 5794 5803 5807 5802 5804 5804 5801 5797 5794 5788 5785 5784 5784 5782 5778 5777 5776 5776 5774 5773 5772 5772 5772 5772 5773 5773 5775 5776 5777 5778 5778 5779 5780 5780 5779 5780
5818 5809 5791 5787 5786 5795 5803 5806 5808 5803 5803 5804 5808 5792 5792 5799 5806 5805 5803 5801 5797 5794 5787 5784 5783 5782 5781 5779 5776 5776 5774 5773 5773 5773 5772 5772 5770 5771 5773 5773 5775 5776 5778 5779 5779 5779 5778 5779 5779
5804 5804 5781 5774 5784 5796 5804 5810 5809 5805 5804 5803 5800 5798 5788 5800 5801 5802 5802 5800 5797 5794 5788 5784 5782 5782 5780 5778 5776 5775 5775 5773 5772 5773 5772 5772 5771 5770 5772 5774 5775 5777 5779 5779 5779 5779 5780 5781 5781
5804 5798 5781 5779 5780 5790 5800 5815 5807 5804 5802 5800 5808 5790 5787 5793 5799 5801 5800 5798 5795 5793 5788 5784 5781 5779 5778 5776 5775 5775 5774 5773 5771 5772 5772 5772 5771 5771 5773 5775 5777 5778 5778 5780 5781 5782 5782 5782 5783
5812 5807 5789 5790 5787 5787 5807 5811 5816 5810 5800 5815 5814 5791 5785 5799 5800 5799 5799 5797 5793 5791 5789 5783 5779 5774 5776 5774 5774 5773 5773 5772 5772 5771 5771 5772 5772 5772 5774 5777 5778 5779 5780 5781 5782 5782 5784 5787 5787
5818 5801 5790 5792 5793 5797 5814 5806 5817 5819 5807 5809 5810 5811 5814 5806 5803 5797 5794 5793 5790 5788 5788 5785 5779 5777 5774 5773 5772 5773 5772 5772 5772 5771 5771 5772 5774 5775 5777 5779 5780 5782 5782 5783 5783 5785 5786 5788 5788
5812 5804 5803 5819 5820 5811 5816 5815 5812 5807 5803 5799 5798 5808 5809 5802 5798 5794 5791 5789 5788 5787 5787 5785 5780 5775 5772 5771 5770 5769 5771 5772 5771 5770 5769 5772 5774 5776 5778 5781 5782 5784 5783 5784 5784 5786 5787 5789 5790
5814 5807 5819 5826 5829 5828 5820 5814 5818 5809 5802 5811 5801 5798 5799 5795 5793 5791 5792 5792 5791 5788 5784 5782 5779 5776 5771 5767 5767 5766 5767 5770 5770 5769 5769 5770 5774 5778 5781 5783 5784 5786 5786 5787 5787 5788 5789 5788 5788
5808 5818 5823 5828 5831 5825 5816 5821 5814 5816 5818 5825 5816 5808 5802 5796 5792 5792 5791 5790 5789 5785 5783 5782 5779 5776 5770 5768 5766 5763 5763 5765 5769 5770 5770 5770 5774 5779 5780 5782 5783 5785 5787 5787 5787 5789 5788 5787 5785
5809 5819 5828 5834 5832 5826 5822 5812 5814 5814 5819 5822 5815 5806 5800 5796 5793 5794 5794 5791 5789 5783 5782 5781 5778 5774 5770 5768 5764 5759 5760 5760 5766 5769 5770 5772 5775 5779 5780 5781 5783 5784 5785 5786 5786 5789 5788 5787 5786
5819 5822 5827 5833 5828 5825 5814 5809 5815 5814 5817 5811 5808 5805 5804 5801 5799 5795 5793 5792 5788 5786 5782 5781 5776 5773 5771 5768 5766 5763 5759 5761 5765 5767 5769 5771 5774 5777 5781 5782 5782 5783 5784 5784 5785 5786 5788 5788 5787
5819 5813 5822 5821 5821 5818 5822 5801 5806 5820 5813 5806 5807 5806 5805 5804 5802 5799 5797 5793 5792 5788 5784 5780 5777 5774 5770 5767 5767 5765 5761 5760 5762 5763 5766 5770 5773 5775 5778 5781 5782 5781 5783 5784 5785 5787 5788 5790 5789
5808 5809 5797 5815 5820 5819 5817 5797 5818 5820 5813 5807 5805 5805 5804 5804 5806 5804 5800 5796 5792 5789 5784 5780 5776 5774 5770 5767 5764 5765 5763 5762 5761 5761 5765 5768 5771 5774 5776 5780 5780 5779 5782 5784 5786 5787 5789 5789 5786
5797 5778 5788 5801 5818 5814 5809 5803 5818 5820 5816 5809 5806 5804 5805 5803 5803 5804 5802 5796 5792 5787 5784 5779 5775 5772 5768 5764 5762 5762 5763 5761 5761 5763 5765 5766 5769 5773 5775 5778 5778 5778 5781 5783 5785 5787 5788 5786 5785
5778 5785 5789 5790 5810 5812 5807 5810 5819 5818 5817 5816 5810 5806 5799 5805 5805 5805 5801 5798 5793 5789 5784 5780 5776 5771 5766 5763 5759 5759 5761 5761 5760 5762 5765 5765 5767 5771 5774 5776 5777 5778 5780 5783 5783 5784 5787 5784 5783
5794 5789 5786 5797 5809 5802 5805 5810 5820 5824 5819 5816 5814 5811 5807 5801 5809 5807 5801 5798 5793 5788 5784 5779 5774 5771 5768 5763 5760 5758 5759 5760 5758 5761 5762 5764 5766 5769 5772 5776 5777 5778 5779 5780 5782 5784 5783 5782 5782
5791 5783 5786 5800 5805 5800 5801 5805 5820 5826 5828 5829 5823 5818 5814 5810 5802 5802 5802 5799 5795 5790 5786 5780 5777 5772 5769 5767 5763 5760 5760 5760 5760 5758 5760 5764 5766 5767 5770 5773 5776 5776 5778 5779 5781 5781 5782 5782 5784
5792 5784 5789 5788 5797 5799 5797 5803 5811 5829 5837 5834 5833 5832 5826 5818 5810 5805 5803 5802 5798 5792 5789 5783 5780 5774 5770 5768 5763 5757 5756 5756 5757 5758 5758 5762 5764 5765 5766 5771 5774 5775 5777 5779 5779 5782 5780 5778 5780
5778 5795 5794 5792 5786 5777 5791 5776 5809 5816 5823 5830 5834 5832 5832 5824 5818 5812 5806 5800 5800 5798 5793 5787 5782 5777 5772 5767 5764 5760 5758 5758 5761 5761 5762 5761 5763 5763 5765 5768 5771 5772 5775 5777 5778 5781 5781 5781 5778
5789 5797 5797 5791 5783 5779 5774 5775 5815 5809 5818 5827 5834 5837 5836 5832 5824 5818 5812 5808 5803 5798 5794 5790 5783 5779 5775 5770 5767 5761 5756 5760 5761 5762 5761 5761 5763 5763 5764 5766 5769 5772 5774 5777 5777 5779 5781 5781 5780
5798 5791 5786 5778 5774 5772 5762 5772 5804 5818 5828 5831 5834 5838 5837 5834 5829 5824 5818 5808 5803 5799 5794 5791 5786 5779 5776 5772 5768 5763 5758 5757 5757 5759 5761 5764 5767 5766 5765 5767 5769 5771 5774 5776 5778 5780 5782 5782 5781
5791 5782 5758 5756 5760 5761 5764 5767 5806 5835 5838 5836 5836 5839 5839 5836 5829 5824 5816 5811 5807 5799 5795 5790 5787 5781 5777 5773 5770 5766 5762 5761 5758 5758 5761 5764 5766 5768 5769 5770 5770 5772 5774 5776 5778 5780 5782 5782 5782
5780 5778 5758 5733 5746 5767 5762 5775 5812 5836 5846 5844 5841 5841 5839 5836 5833 5828 5819 5812 5805 5799 5795 5792 5787 5780 5777 5773 5770 5767 5763 5763 5762 5761 5763 5764 5767 5769 5771 5771 5771 5771 5773 5776 5778 5780 5782 5783 5782
5768 5765 5776 5765 5755 5754 5782 5799 5828 5846 5840 5840 5839 5837 5833 5831 5830 5828 5821 5815 5809 5803 5800 5796 5789 5785 5779 5773 5770 5765 5762 5762 5762 5762 5763 5763 5765 5768 5769 5769 5770 5769 5773 5776 5778 5780 5779 5781 5780
5783 5786 5759 5760 5741 5744 5773 5774 5797 5827 5836 5841 5838 5840 5835 5832 5829 5827 5823 5818 5812 5808 5802 5798 5792 5788 5783 5776 5771 5766 5763 5762 5761 5761 5761 5762 5764 5766 5768 5769 5771 5770 5771 5776 5776 5776 5775 5777 5779
5766 5768 5767 5771 5764 5758 5756 5786 5826 5826 5836 5836 5843 5844 5839 5837 5831 5829 5826 5823 5816 5811 5805 5799 5794 5789 5783 5775 5770 5766 5763 5763 5761 5760 5761 5762 5763 5764 5767 5767 5768 5770 5772 5774 5774 5774 5772 5774 5776
5792 5785 5782 5765 5760 5757 5759 5786 5843 5843 5843 5837 5842 5843 5842 5842 5840 5834 5829 5824 5818 5812 5809 5804 5797 5792 5786 5776 5768 5763 5760 5760 5758 5757 5759 5760 5760 5762 5763 5764 5763 5767 5770 5772 5772 5772 5771 5772 5774